Notices

What's New in latest Release from April 7th, 2021:

- Updated Glossary, including Speed of Maximum Gust, and Total Hourly Precipitation

- Updated national and regional climate services offices contacts and prices information

- Addition of station inventory lists for 1981-2010, 1971-2000, and 1961-1990 Normals.

If you haven't already, please take our survey and provide feedback about our website: https://eccc.sondage-survey.ca/f/LanguageSelection.aspx?s=442ca660-fcf1-47c0-95a9-59707d6fd709

Hourly Data Report for November 16, 2019

PINAWA
MANITOBA
Current Station Operator: ECCC - MSC

50°10'38.020" N
96°03'53.000" W
268.00 m
503B1ER
71448
WEA

Download Data

Hourly Data (November 2019)
Hourly Data Report for November 16, 2019
TIME
LST
Temp Definition
°C
Dew Point Definition
°C
Rel Hum Definition
%
Precip. Amount Definition
mm

Wind Dir Definition
10's deg

Wind Spd Definition
km/h
Visibility Definition
km
Stn Press Definition
kPa
Hmdx Definition


Wind Chill Definition


Weather Definition


00:00 -3.5 LegendMM LegendMM 0.0 16 14   98.61   -9 LegendNANA
01:00 -3.1 LegendMM LegendMM 0.0 15 14   98.51   -8 LegendNANA
02:00 -2.9 LegendMM LegendMM 0.0 15 13   98.37   -8 LegendNANA
03:00 -2.5 LegendMM LegendMM 0.0 15 14   98.27   -7 LegendNANA
04:00 -2.4 LegendMM LegendMM 0.0 16 14   98.19   -7 LegendNANA
05:00 -2.1 LegendMM LegendMM 0.0 16 13   98.08   -7 LegendNANA
06:00 -1.8 LegendMM LegendMM 0.0 15 14   97.97   -6 LegendNANA
07:00 -1.4 LegendMM LegendMM 0.0 16 15   97.91   -6 LegendNANA
08:00 -1.1 LegendMM LegendMM 0.0 16 17   97.86   -6 LegendNANA
09:00 -0.5 LegendMM LegendMM 0.0 15 15   97.76   -5 LegendNANA
10:00 0.1 LegendMM LegendMM 0.0 15 15   97.69     LegendNANA
11:00 1.1 LegendMM LegendMM 0.0 15 14   97.55     LegendNANA
12:00 2.2 LegendMM LegendMM 0.0 16 13   97.49     LegendNANA
13:00 4.4 LegendMM LegendMM 0.0 16 12   97.41     LegendNANA
14:00 5.2 LegendMM LegendMM 0.0 17 11   97.34     LegendNANA
15:00 6.3 LegendMM LegendMM 0.0 22 11   97.35     LegendNANA
16:00 4.9 LegendMM LegendMM 0.0 21 7   97.40     LegendNANA
17:00 4.4 LegendMM LegendMM 0.0 20 6   97.42     LegendNANA
18:00 3.7 LegendMM LegendMM 0.0 23 8   97.44     LegendNANA
19:00 2.6 LegendMM LegendMM 0.0 24 7   97.47     LegendNANA
20:00 2.2 LegendMM LegendMM 0.0 25 8   97.45     LegendNANA
21:00 1.9 LegendMM LegendMM 0.0 27 11   97.49     LegendNANA
22:00 0.8 LegendMM LegendMM 0.0 31 17   97.59     LegendNANA
23:00 -0.3 LegendMM LegendMM 0.0 31 21   97.70   -6 LegendNANA

Notes on Data Quality.

Legend

  • E = Estimated
  • M = Missing
  • NA = Not Available*
  • [empty] = Indicates an unobserved value
Date modified: